STARLINK-36090 (66855 NORAD) Tracking and Keplerian Element Data

This shows tracking and keplerian element data for the satellite.

Feedback or suggestion? Click here.




ElementValue
Catalog66855
NameSTARLINK-36090
Epoch Orbit248
Epoch Day354.25003472
Epoch Year2025
RAAN76.3579
Inclination43.0009
Eccentricity9.57E-05
Argument of Perigee263.97
Mean Anonmoly235.6559
Mean Motion15.75421006
Decay Rate-0.01720343
L11 66855U 25281H 25354.25003472 -.01720343 00000+0 -12484-1 0 9991
L22 66855 43.0009 76.3579 0000957 263.9700 235.6559 15.75421006 2483



Live tracking and technical data element details for STARLINK-36090 (NORAD 66855). STARLINK-36090 can be tracked NOW for your location showing map with azimuth and elevation plus other details from your city location.







IsCatalogInMostPopularTable: catalog: 66855, numindb: 25
Update: records affected: 1



GetName: 66855 STARLINK-36090

Hit Count: updated at: Mon, 20 Apr 2026 08:57:42 GMT